CXO

Last updated on Fri Jun 19 2026 17:10:08 GMT+0000 (Coordinated Universal Time)

1 25867U 99040B 26172.02247085 .00000453 00000+0 00000+0 0 9996 2 25867 56.2474 116.4966 7828329 310.2765 0.2930 0.37807394 17333
UTC large
Height (km)
Speed (km/s)
/
Latitude / Longitude
Inclination (degrees)
Orbital Period (minutes)
Azimuth
Elevation
Range (km)
Doppler Factor

Next 0 passes for location: London (51.5072 / 0.1276)

No passes found over London.
CXO